Change the Weather History Date:

Friday, March 22, 2013

  Actual Average Record
Temperature  
Mean Temperature 22 °F -  
Max Temperature 30 °F 40 °F 62 °F (2003)
Min Temperature 14 °F 24 °F 0 °F (2002)
Degree Days  
Heating Degree Days 43    
Moisture  
Dew Point 16 °F    
Average Humidity 77    
Maximum Humidity 93    
Minimum Humidity 60    
Precipitation  
Precipitation 0.00 in - - ()
Sea Level Pressure  
Sea Level Pressure 30.00 in    
Wind  
Wind Speed 5 mph (ESE)    
Max Wind Speed 10 mph    
Max Gust Speed -    
Visibility 10 miles    
Events Snow    
Averages and records for this station are not official NWS values.
T = Trace of Precipitation, MM = Missing Value Source: NWS Daily Summary

Daily Weather History Graph

Daily Weather History Graph

Search for Another Location

Airport or City:

Trip Planner

Search our weather history database for the weather conditions in past years. The results will help you decide how hot, cold, wet, or windy it might be!

Date:

Astronomy

Mar. 22, 2013 Rise Set
Actual Time 7:24 AM CDT 7:40 PM CDT
Civil Twilight 6:55 AM CDT 8:09 PM CDT
Nautical Twilight 6:21 AM CDT 8:43 PM CDT
Astronomical Twilight 5:46 AM CDT 9:18 PM CDT
Moon 3:00 PM CDT (3/22) 4:34 AM CDT (3/22)
Length of Visible Light 13h 13m
Length of Day
12h 16m
Waxing Gibbous, 77% of the Moon is Illuminated
Mar 22
Waxing Gibbous
Mar 27
Full
Apr 2
Last Quarter
Apr 10
New
Apr 18
First Quarter

Hourly Weather History & Observations

Time (CDT) Temp. Windchill Dew Point Humidity Pressure Visibility Wind Dir Wind Speed Gust Speed Precip Events Conditions
12:13 AM 17.6 °F 9.3 °F 15.8 °F 93% 30.02 in 10.0 mi East 5.8 mph - N/A   Clear
12:33 AM 17.6 °F 10.7 °F 15.8 °F 93% 30.02 in 10.0 mi East 4.6 mph - N/A   Clear
12:53 AM 17.6 °F 10.7 °F 15.8 °F 93% 30.01 in 10.0 mi East 4.6 mph - N/A   Clear
1:13 AM 17.6 °F 9.3 °F 14.0 °F 86% 30.01 in 10.0 mi East 5.8 mph - N/A   Clear
1:33 AM 17.6 °F 9.3 °F 14.0 °F 86% 30.01 in 10.0 mi East 5.8 mph - N/A   Clear
1:53 AM 17.6 °F 8.2 °F 14.0 °F 86% 30.02 in 10.0 mi East 6.9 mph - N/A   Clear
2:13 AM 15.8 °F 6.1 °F 12.2 °F 86% 30.02 in 10.0 mi East 6.9 mph - N/A   Clear
2:33 AM 15.8 °F 7.2 °F 12.2 °F 86% 30.02 in 10.0 mi East 5.8 mph - N/A   Clear
2:53 AM 15.8 °F 8.6 °F 12.2 °F 86% 30.02 in 10.0 mi East 4.6 mph - N/A   Clear
3:13 AM 15.8 °F 7.2 °F 12.2 °F 86% 30.02 in 10.0 mi ESE 5.8 mph - N/A   Clear
3:33 AM 15.8 °F 7.2 °F 12.2 °F 86% 30.01 in 10.0 mi ESE 5.8 mph - N/A   Clear
3:53 AM 15.8 °F 7.2 °F 12.2 °F 86% 30.00 in 10.0 mi East 5.8 mph - N/A   Clear
4:13 AM 15.8 °F 8.6 °F 12.2 °F 86% 30.00 in 10.0 mi ESE 4.6 mph - N/A   Clear
4:33 AM 15.8 °F 10.2 °F 10.4 °F 79% 30.00 in 10.0 mi East 3.5 mph - N/A   Clear
4:53 AM 14.0 °F - 10.4 °F 86% 30.00 in 10.0 mi Calm Calm - N/A   Clear
5:13 AM 14.0 °F - 10.4 °F 86% 30.00 in 10.0 mi Calm Calm - N/A   Clear
5:33 AM 14.0 °F 6.5 °F 10.4 °F 86% 30.00 in 10.0 mi ESE 4.6 mph - N/A   Clear
5:53 AM 14.0 °F 6.5 °F 10.4 °F 86% 30.00 in 10.0 mi ESE 4.6 mph - N/A   Clear
6:14 AM 14.0 °F 6.5 °F 10.4 °F 86% 30.00 in 10.0 mi ESE 4.6 mph - N/A   Clear
6:33 AM 14.0 °F 6.5 °F 10.4 °F 86% 29.99 in 10.0 mi East 4.6 mph - N/A   Clear
7:14 AM 14.0 °F 6.5 °F 10.4 °F 86% 30.00 in 10.0 mi ESE 4.6 mph - N/A   Clear
7:33 AM 14.0 °F 5.1 °F 10.4 °F 86% 30.00 in 10.0 mi ESE 5.8 mph - N/A   Clear
7:53 AM 15.8 °F 7.2 °F 10.4 °F 79% 30.00 in 10.0 mi ESE 5.8 mph - N/A   Clear
8:13 AM 15.8 °F 7.2 °F 10.4 °F 79% 30.00 in 10.0 mi ESE 5.8 mph - N/A   Clear
8:33 AM 15.8 °F 6.1 °F 10.4 °F 79% 30.00 in 10.0 mi ESE 6.9 mph - N/A   Scattered Clouds
8:53 AM 17.6 °F 7.3 °F 10.4 °F 73% 29.99 in 10.0 mi ESE 8.1 mph - N/A   Scattered Clouds
9:13 AM 17.6 °F 9.3 °F 12.2 °F 79% 29.99 in 10.0 mi ESE 5.8 mph - N/A   Clear
9:33 AM 19.4 °F 10.4 °F 12.2 °F 74% 29.99 in 10.0 mi ESE 6.9 mph - N/A   Clear
9:53 AM 19.4 °F 9.5 °F 15.8 °F 86% 29.99 in 10.0 mi SE 8.1 mph - N/A   Clear
10:13 AM 21.2 °F 13.6 °F 15.8 °F 80% 29.98 in 10.0 mi SE 5.8 mph - N/A   Clear
10:33 AM 21.2 °F 13.6 °F 15.8 °F 80% 29.99 in 10.0 mi SE 5.8 mph - N/A   Clear
10:53 AM 21.2 °F 12.6 °F 15.8 °F 80% 29.99 in 10.0 mi SE 6.9 mph - N/A   Clear
11:13 AM 21.2 °F 13.6 °F 15.8 °F 80% 29.99 in 10.0 mi SSE 5.8 mph - N/A   Clear
11:33 AM 23.0 °F 14.7 °F 15.8 °F 74% 30.00 in 10.0 mi SSE 6.9 mph - N/A   Clear
11:53 AM 24.8 °F 16.1 °F 17.6 °F 74% 30.00 in 10.0 mi South 8.1 mph - N/A   Mostly Cloudy
12:13 PM 24.8 °F 16.9 °F 17.6 °F 74% 29.99 in 10.0 mi South 6.9 mph - N/A   Mostly Cloudy
12:33 PM 24.8 °F 19.1 °F 17.6 °F 74% 29.99 in 10.0 mi South 4.6 mph - N/A   Scattered Clouds
12:53 PM 24.8 °F 17.9 °F 17.6 °F 74% 29.99 in 10.0 mi SSE 5.8 mph - N/A   Scattered Clouds
1:13 PM 26.6 °F 20.0 °F 17.6 °F 69% 29.99 in 10.0 mi SSE 5.8 mph - N/A   Scattered Clouds
1:33 PM 26.6 °F 21.2 °F 17.6 °F 69% 29.99 in 10.0 mi SSE 4.6 mph - N/A   Scattered Clouds
1:53 PM 26.6 °F 20.0 °F 17.6 °F 69% 29.99 in 10.0 mi SE 5.8 mph - N/A   Scattered Clouds
2:13 PM 28.4 °F 21.2 °F 17.6 °F 64% 29.99 in 10.0 mi SSW 6.9 mph - N/A   Mostly Cloudy
2:33 PM 28.4 °F 22.2 °F 17.6 °F 64% 29.98 in 10.0 mi SSW 5.8 mph - N/A   Mostly Cloudy
2:54 PM 28.4 °F 23.3 °F 17.6 °F 64% 29.98 in 10.0 mi SSE 4.6 mph - N/A   Scattered Clouds
3:13 PM 28.4 °F 22.2 °F 17.6 °F 64% 29.98 in 10.0 mi South 5.8 mph - N/A   Scattered Clouds
3:33 PM 28.4 °F 23.3 °F 17.6 °F 64% 29.97 in 10.0 mi SSE 4.6 mph - N/A   Scattered Clouds
3:54 PM 30.2 °F - 17.6 °F 60% 29.97 in 10.0 mi Calm Calm - N/A   Mostly Cloudy
4:13 PM 30.2 °F - 17.6 °F 60% 29.97 in 10.0 mi Calm Calm - N/A   Overcast
4:33 PM 30.2 °F - 17.6 °F 60% 29.97 in 10.0 mi Calm Calm - N/A   Overcast
4:54 PM 30.2 °F 25.4 °F 17.6 °F 60% 29.97 in 10.0 mi South 4.6 mph - N/A   Mostly Cloudy
5:13 PM 30.2 °F 26.7 °F 17.6 °F 60% 29.97 in 10.0 mi SSW 3.5 mph - N/A   Mostly Cloudy
5:33 PM 30.2 °F - 17.6 °F 60% 29.97 in 10.0 mi Calm Calm - N/A   Mostly Cloudy
5:54 PM 30.2 °F - 19.4 °F 64% 29.97 in 10.0 mi Calm Calm - N/A   Mostly Cloudy
6:13 PM 30.2 °F - 19.4 °F 64% 29.97 in 10.0 mi Calm Calm - N/A   Overcast
6:33 PM 30.2 °F 25.4 °F 19.4 °F 64% 29.98 in 10.0 mi ESE 4.6 mph - N/A   Overcast
6:53 PM 30.2 °F - 17.6 °F 60% 29.98 in 10.0 mi Calm Calm - N/A   Overcast
7:13 PM 30.2 °F - 19.4 °F 64% 29.98 in 10.0 mi Calm Calm - N/A   Overcast
7:33 PM 30.2 °F - 19.4 °F 64% 29.99 in 10.0 mi Calm Calm - N/A   Overcast
7:53 PM 30.2 °F - 17.6 °F 60% 29.99 in 10.0 mi Calm Calm - N/A   Overcast
8:13 PM 28.4 °F 20.4 °F 23.0 °F 80% 30.00 in 10.0 mi ENE 8.1 mph - N/A   Mostly Cloudy
8:33 PM 26.6 °F 19.1 °F 21.2 °F 80% 30.01 in 10.0 mi East 6.9 mph - N/A Snow Light Snow
8:54 PM 26.6 °F 16.8 °F 21.2 °F 80% 30.02 in 10.0 mi East 10.4 mph - N/A   Mostly Cloudy
9:13 PM 26.6 °F 18.2 °F 21.2 °F 80% 30.03 in 10.0 mi East 8.1 mph - N/A   Mostly Cloudy
9:33 PM 24.8 °F 16.1 °F 21.2 °F 86% 30.04 in 7.0 mi East 8.1 mph - N/A Snow Light Snow
9:53 PM 24.8 °F 16.9 °F 21.2 °F 86% 30.04 in 10.0 mi East 6.9 mph - N/A Snow Light Snow
10:13 PM 24.8 °F 14.6 °F 21.2 °F 86% 30.04 in 10.0 mi East 10.4 mph - N/A Snow Light Snow
10:33 PM 24.8 °F 15.3 °F 21.2 °F 86% 30.03 in 10.0 mi East 9.2 mph - N/A   Scattered Clouds
10:53 PM 24.8 °F 16.1 °F 19.4 °F 80% 30.03 in 10.0 mi East 8.1 mph - N/A   Clear
11:13 PM 24.8 °F 16.9 °F 19.4 °F 80% 30.03 in 10.0 mi East 6.9 mph - N/A   Clear
11:33 PM 24.8 °F 20.5 °F 19.4 °F 80% 30.04 in 10.0 mi East 3.5 mph - N/A   Clear
11:53 PM 23.0 °F 17.0 °F 19.4 °F 86% 30.02 in 10.0 mi East 4.6 mph - N/A   Clear